sat.trackr.live / text

‹ back to catalog

ASTRA 2F

NORAD 38778 · 2012-051A

PAYLOAD ACTIVE UNKNOWN

§ Identity

Operator
Country
SES
Launch date
2012-09-28
Launch site
FRGUI
Launch vehicle
Mass (kg)
RCS (m²)
17.60

Purposes: comms

External: N2YO · Heavens-Above · Gunter

§ Orbital elements

Epoch: 2026-05-25T03:52:38.992224Z

Period
1,436.07 min
Inclination
0.0345°
Eccentricity
0.0000867
Mean motion
1.00273420 rev/d
Perigee alt
35,782.5 km
Apogee alt
35,789.8 km
Semi-major
42,164.3 km
B*
0.0000e+0
RAAN
255.4371°
Arg perigee
273.3777°
Mean anomaly
160.2938°
Rev number
4,090

§ Raw data

ASTRA 2F1 38778U 12051A   26145.16156241  .00000148  00000+0  00000+0 0  99972 38778   0.0345 255.4371 0000867 273.3777 160.2938  1.00273420 40902

JSON: /api/v1/satellites/38778 · /tle

For live sub-satellite position, see the globe view (requires WebGL).

§ Visibility from observer

Set your observer location to see the next 7 days of passes ≥ 10°. The values pass through the URL so the page stays shareable.

No JS? Fill the form by hand. The geolocation button needs JavaScript.